Location: Unspecified
(45.3712°N, 0.6436°E)
Time: 08:33:38
(UTC+02:00)

ISS - Pass Details

Date: 22 July 2018
Orbit: 402 x 408 km, 51.6° (Epoch: 16 July)

Event Time Altitude Azimuth Distance (km) Brightness Sun altitude
Rises 00:27:22 0° 269° (W) 2,320 0.3 -20.7°
Reaches altitude 10° 00:29:34 10° 279° (W) 1,462 -0.6 -20.9°
Maximum altitude 00:32:35 33° 346° (NNW) 708 -2.0 -21.1°
Drops below altitude 10° 00:35:36 10° 53° (NE) 1,468 -0.8 -21.3°
Sets 00:37:49 0° 63° (ENE) 2,330 0.1 -21.4°
